JS1SZZ-13 Weather Reports


time (UTC)temp
F
wind
direction
speed
knots
gust
knots
rain 1hr
in
rain 24hr
in
rain mn
in
humidity
%
barometer
mb
20260505125000 45 0 0.0 0.0 0.00 0.00 0.00 78 1020.5
20260505123459 46 0 0.0 0.0 0.00 0.00 0.00 75 1020.3
20260505122001 47 0 0.0 0.0 0.00 0.00 0.00 75 1020.1
20260505120500 47 0 0.0 0.0 0.00 0.00 0.00 72 1019.9
20260505115000 48 0 0.0 0.0 0.00 0.00 0.00 70 1019.6
20260505113500 49 0 0.0 0.0 0.00 0.00 0.00 69 1019.5
20260505111959 49 0 0.0 0.0 0.00 0.00 0.00 67 1019.3
20260505110500 50 0 0.0 0.0 0.00 0.00 0.00 67 1018.8
20260505102000 53 0 0.0 0.0 0.00 0.00 0.00 57 1018.4
20260505100500 54 0 0.0 0.0 0.00 0.00 0.00 52 1018.3
20260505095000 57 0 0.0 0.0 0.00 0.00 0.00 50 1017.9
20260505093500 59 0 0.0 0.0 0.00 0.00 0.00 45 1017.9
20260505091959 61 0 0.0 0.0 0.00 0.00 0.00 37 1017.4
20260505090500 63 0 0.0 0.0 0.00 0.00 0.00 32 1017.5
20260505085000 65 0 0.0 0.0 0.00 0.00 0.00 26 1017.2
20260505083500 66 0 0.0 0.0 0.00 0.00 0.00 29 1017.0
20260505081959 66 0 0.0 0.0 0.00 0.00 0.00 27 1016.8
20260505080500 68 0 0.0 0.0 0.00 0.00 0.00 22 1016.6
20260505075001 69 0 0.0 0.0 0.00 0.00 0.00 19 1016.6
20260505073500 71 0 0.0 0.0 0.00 0.00 0.00 20 1016.5
20260505071959 68 0 0.0 0.0 0.00 0.00 0.00 19 1016.1
20260505070459 68 0 0.0 0.0 0.00 0.00 0.00 20 1016.0
20260505065000 68 0 0.0 0.0 0.00 0.00 0.00 21 1015.6
20260505063500 68 0 0.0 0.0 0.00 0.00 0.00 19 1015.7
20260505061959 68 0 0.0 0.0 0.00 0.00 0.00 20 1015.8
20260505060500 68 0 0.0 0.0 0.00 0.00 0.00 20 1015.6
20260505055000 68 0 0.0 0.0 0.00 0.00 0.00 22 1015.4
20260505053459 68 0 0.0 0.0 0.00 0.00 0.00 20 1015.7
20260505051959 68 0 0.0 0.0 0.00 0.00 0.00 20 1015.7
20260505050459 66 0 0.0 0.0 0.00 0.00 0.00 22 1016.0
20260505040501 68 0 0.0 0.0 0.00 0.00 0.00 20 1016.1
20260505034959 68 0 0.0 0.0 0.00 0.00 0.00 23 1016.4
20260505033500 66 0 0.0 0.0 0.00 0.00 0.00 20 1016.4
20260505032000 68 0 0.0 0.0 0.00 0.00 0.00 27 1016.5
20260505030459 66 0 0.0 0.0 0.00 0.00 0.00 22 1016.5
20260505025000 66 0 0.0 0.0 0.00 0.00 0.00 22 1016.8
20260505023500 66 0 0.0 0.0 0.00 0.00 0.00 23 1016.4
20260505021959 66 0 0.0 0.0 0.00 0.00 0.00 23 1016.7
20260505020459 66 0 0.0 0.0 0.00 0.00 0.00 29 1016.9
20260505015000 66 0 0.0 0.0 0.00 0.00 0.00 22 1016.8
20260505013500 65 0 0.0 0.0 0.00 0.00 0.00 22 1016.9
20260505011959 65 0 0.0 0.0 0.00 0.00 0.00 25 1016.8
20260505010500 65 0 0.0 0.0 0.00 0.00 0.00 24 1017.1
20260505004959 64 0 0.0 0.0 0.00 0.00 0.00 21 1016.8
20260505003501 64 0 0.0 0.0 0.00 0.00 0.00 26 1016.8
20260505002000 64 0 0.0 0.0 0.00 0.00 0.00 24 1016.9
20260505000459 64 0 0.0 0.0 0.00 0.00 0.00 31 1016.8
20260504235000 63 0 0.0 0.0 0.00 0.00 0.00 33 1017.0
20260504233500 62 0 0.0 0.0 0.00 0.00 0.00 28 1017.0
20260504231959 60 0 0.0 0.0 0.00 0.00 0.00 30 1017.1
20260504230500 58 0 0.0 0.0 0.00 0.00 0.00 39 1017.0
20260504224959 58 0 0.0 0.0 0.00 0.00 0.00 38 1017.0
20260504223500 56 0 0.0 0.0 0.00 0.00 0.00 43 1016.8
20260504222000 55 0 0.0 0.0 0.00 0.00 0.00 52 1016.8
20260504220459 52 0 0.0 0.0 0.00 0.00 0.00 54 1017.0
20260504215001 51 0 0.0 0.0 0.00 0.00 0.00 61 1017.0
20260504213500 48 0 0.0 0.0 0.00 0.00 0.00 66 1016.9
20260504211959 47 0 0.0 0.0 0.00 0.00 0.00 76 1016.6
20260504210500 44 0 0.0 0.0 0.00 0.00 0.00 84 1016.4
20260504205000 40 0 0.0 0.0 0.00 0.00 0.00 89 1016.1
20260504203459 38 0 0.0 0.0 0.00 0.01 0.00 90 1015.8
20260504202000 37 0 0.0 0.0 0.00 0.01 0.00 88 1015.7
20260504200500 37 0 0.0 0.0 0.00 0.03 0.00 88 1015.3
20260504194959 37 0 0.0 0.0 0.00 0.10 0.00 88 1015.1
20260504193500 38 0 0.0 0.0 0.00 0.12 0.00 87 1014.9
20260504192000 38 0 0.0 0.0 0.00 0.12 0.00 87 1014.4
20260504190459 38 0 0.0 0.0 0.00 0.14 0.00 85 1014.3
20260504185000 39 0 0.0 0.0 0.00 0.14 0.00 83 1014.1
20260504183500 39 0 0.0 0.0 0.00 0.14 0.00 82 1013.8
20260504181959 40 0 0.0 0.0 0.00 0.15 0.00 80 1013.4
20260504180500 40 0 0.0 0.0 0.00 0.15 0.00 80 1013.2
20260504174959 41 0 0.0 0.0 0.00 0.16 0.00 78 1012.9
20260504173501 41 0 0.0 0.0 0.00 0.17 0.00 77 1012.7
20260504172000 42 0 0.0 0.0 0.00 0.18 0.00 74 1012.6
20260504170500 43 0 0.0 0.0 0.00 0.20 0.00 71 1012.6
20260504150500 47 0 0.0 0.0 0.00 0.22 0.00 60 1010.6
20260504140459 51 0 0.0 0.0 0.00 0.22 0.22 48 1009.4
20260504130500 53 0 0.0 0.0 0.00 0.23 0.22 45 1007.9